www.pogodaiklimat.ru

Погода и климат >> Архив погоды >> Индонезия >> Таракан


ПОГОДА в Таракане

  • Прогноз погоды в Таракане
  • Монитор погоды в Таракане

АРХИВ ПОГОДЫ в Таракане

Время (UTC), дата Ветер
(напр.,м/с)
 
Видим.   Явления Облачность Т
(С)
Тd
(С)
f
(%)
Тe
(С)
Тes
(С)
Комфортность P
(гПа)
Po
(гПа)
Тmin
(С)
Tmax
(С)
R
(мм)
R24
(мм)
S
(см)
06 9.06 Ю 2 10 км {дождь} 9/4 450 м
[Cu hum Ac As Ci fib]
+28.8 +25.6 83 +43 +49 опасность
перегрева
1009.0 1008.1 11
09 9.06 штиль 0 10 км 9/1 450 м
[Cu hum Ac As Ci fib]
+29.2 +24.6 76 +41 +43 опасность
перегрева
1008.5 1007.6
12 9.06 штиль 0 8000 м 8/1 450 м
[Cu hum Ac trans Ci fib]
+27.4 +25.6 90 +40 +40 очень
душно
1008.9 1008.0 +29.6
15 9.06 штиль 0 8000 м 8/1 450 м
[Cu hum Ac trans Ci fib]
+25.8 +25.0 95 +37 +37 очень
душно
1009.7 1008.9
18 9.06 штиль 0 8000 м 8/1 450 м
[Cu hum Ac trans Ci fib]
+25.4 +24.4 94 +35 +35 очень
душно
1008.6 1007.8
21 9.06 ЮВ 1 8000 м 8/4 450 м
[Cu hum Ac trans Ci fib]
+25.2 +24.4 95 +35 +35 очень
душно
1008.2 1007.4
00 10.06 ЮЗ 3 8000 м 8/4 450 м
[Cu hum Ac trans Ci fib]
+27.0 +25.5 92 +40 +41 очень
душно
1009.9 1009.1 +25.2
03 10.06 Ю 2 8000 м 4/3 450 м
[Cu hum Ac lent Ci fib]
+31.3 +25.5 71 +46 +58 опасность
перегрева
1009.6 1008.8
06 10.06 штиль 0 10 км 5/4 450 м
[Cu hum Ac lent Ci fib]
+32.3 +25.4 67 +47 +58 опасность
перегрева
1007.5 1006.7
09 10.06 В 2 10 км 5/3 450 м
[Cu hum Ac As Ci fib]
+31.0 +25.0 70 +44 +45 опасность
перегрева
1007.2 1006.4
12 10.06 штиль 0 8000 м {гроза} 8/4 420 м
[Cb cap Ac As Ci fib]
+28.8 +25.6 83 +43 +43 опасность
перегрева
1009.2 1008.4 +32.8
15 10.06 штиль 0 8000 м 4/1 450 м
[Cu med, cong Ac trans Ci fib]
+27.4 +25.6 90 +40 +40 очень
душно
1011.2 1010.4
18 10.06 штиль 0 8000 м 8/4 450 м
[Cu med, cong Ac trans Ci fib]
+27.1 +25.7 92 +40 +40 очень
душно
1010.3 1009.4
21 10.06 штиль 0 8000 м {дождь} 8/4 450 м
[Cu med, cong Ac As Ci fib]
+25.6 +24.6 94 +36 +36 очень
душно
1010.5 1009.7 0.5
00 11.06 СЗ 2 10 км {дождь} 8/4 450 м
[Cu hum Ac trans Ci fib]
+27.4 +25.6 90 +40 +42 очень
душно
1011.7 1010.9 +25.2 0.5
03 11.06 ЮЗ 2 10 км 8/4 450 м
[Cu hum Ac trans Ci fib]
+31.2 +26.4 76 +48 +55 опасность
перегрева
1011.6 1010.8
06 11.06 штиль 0 50 км ?/? +32.0 +25.8 70 +47 +47 опасность
перегрева
1009.0 1008.2
09 11.06 В 3 10 км 4/1 450 м
[Cu med, cong Ac lent Ci fib]
+31.0 +25.5 73 +46 +47 опасность
перегрева
1007.8 1006.9
12 11.06 штиль 0 8000 м 3/1 450 м
[Cu hum Ac lent Ci fib]
+28.8 +25.6 83 +43 +43 опасность
перегрева
1009.4 1008.5 +32.6
15 11.06 штиль 0 8000 м 3/1 450 м
[Cu hum Ac trans Ci fib]
+27.6 +25.2 87 +40 +40 очень
душно
1010.3 1009.5
18 11.06 штиль 0 8000 м 3/1 450 м
[Cu hum Ac trans Ci fib]
+26.6 +25.1 91 +38 +38 очень
душно
1009.3 1008.4
21 11.06 штиль 0 8000 м 3/1 450 м
[Cu hum Ac trans Ci fib]
+26.5 +25.7 95 +39 +39 очень
душно
1009.9 1009.0
00 12.06 Ю 2 10 км 9/8 450 м
[Cu med, cong Ac trans Ci fib]
+28.6 +26.3 87 +43 +44 опасность
перегрева
1011.7 1010.9 +26.4
03 12.06 СВ 2 8000 м {дождь} 9/6 450 м
[Cu med, cong Ac trans Ci fib]
+28.6 +24.8 80 +41 +45 опасность
перегрева
1011.7 1010.9 4
06 12.06 Ю 3 10 км {дождь} 9/5 450 м
[Cu med, cong Ac trans Ci fib]
+31.8 +25.6 70 +47 +51 опасность
перегрева
1008.7 1007.9 4
09 12.06 В 3 10 км 5/4 450 м
[Cu hum Ac trans Ci fib]
+31.2 +24.6 68 +44 +45 опасность
перегрева
1007.9 1007.1
12 12.06 В 2 8000 м 5/4 450 м
[Cu med, cong Ac trans Ci fib]
+28.8 +26.2 86 +44 +44 опасность
перегрева
1009.8 1009.0 +32.0
15 12.06 штиль 0 8000 м 3/3 450 м
[Cu med, cong Ac lent Ci fib]
+27.8 +25.9 89 +41 +41 опасность
перегрева
1011.3 1010.5
18 12.06 штиль 0 8000 м 6/6 450 м
[Cu hum Ac lent Ci fib]
+27.1 +25.9 93 +40 +40 очень
душно
1009.7 1008.8
21 12.06 Ю 1 8000 м 6/5 450 м
[Cu hum Ac lent Ci fib]
+27.6 +25.5 88 +40 +40 очень
душно
1009.2 1008.4
00 13.06 ЮЗ 3 10 км 8/4 450 м
[Cu med, cong Ac As Ci fib]
+29.4 +26.0 82 +44 +46 опасность
перегрева
1011.2 1010.4 +27.0 4
03 13.06 ЮЗ 2 10 км 4/3 450 м
[Cu hum Ac trans Ci fib]
+32.0 +25.7 69 +47 +58 опасность
перегрева
1010.8 1010.0
06 13.06 ЮЗ 2 10 км 3/1 450 м
[Cu hum Ac trans Ci fib]
+33.2 +24.7 61 +46 +60 опасность
перегрева
1008.0 1007.2
09 13.06 Ю 2 10 км 3/3 450 м
[Cu hum Ac trans Ci fib]
+33.0 +22.9 55 +43 +44 опасность
перегрева
1006.8 1006.0
12 13.06 СВ 1 8000 м 3/3 450 м
[Cu hum Ac trans Ci fib]
+29.6 +25.3 78 +43 +43 опасность
перегрева
1008.8 1008.0 +34.0
15 13.06 штиль 0 8000 м 3/3 450 м
[Cu hum Ac trans Ci fib]
+28.2 +25.7 86 +42 +42 опасность
перегрева
1010.8 1009.9
18 13.06 штиль 0 8000 м 5/4 450 м
[Cu hum Ac trans Ci fib]
+27.6 +25.7 89 +41 +41 опасность
перегрева
1009.0 1008.2
21 13.06 Ю 1 8000 м 5/4 450 м
[Cu hum Ac trans Ci fib]
+28.0 +24.8 83 +40 +40 очень
душно
1009.1 1008.3
00 14.06 штиль 0 9000 м 9/4 450 м
[Cu hum Ac trans Ci fib]
+27.6 +25.8 90 +41 +43 опасность
перегрева
1011.1 1010.3 +27.2
03 14.06 З 3 8000 м {дождь} 9/4 450 м
[Cu med, cong Ac As Ci fib]
+29.2 +26.3 84 +44 +50 опасность
перегрева
1010.8 1010.0 0.6
06 14.06 С 2 10 км 9/4 450 м
[Cu med, cong Ac As Ci fib]
+30.0 +27.4 86 +48 +54 опасность
перегрева
1008.5 1007.7 0.6
09 14.06 В 1 10 км 9/1 450 м
[Cu hum Ac As Ci fib]
+29.3 +26.0 82 +44 +45 опасность
перегрева
1007.8 1006.9
12 14.06 штиль 0 10 км 9/1 450 м
[Cu hum Ac As Ci fib]
+28.0 +26.2 90 +42 +42 опасность
перегрева
1009.1 1008.2 +30.4
15 14.06 штиль 0 8000 м 9/1 450 м
[Cu hum Ac trans Ci fib]
+26.6 +25.2 92 +38 +38 очень
душно
1011.1 1010.3
18 14.06 штиль 0 8000 м 9/3 450 м
[Cu hum Ac As Ci fib]
+25.5 +25.4 99 +37 +37 очень
душно
1009.7 1008.8
21 14.06 штиль 0 8000 м 9/3 450 м
[Cu hum Ac As Ci fib]
+26.3 +25.1 93 +38 +38 очень
душно
1009.0 1008.2
00 15.06 СЗ 2 8000 м в посл. час дождь 9/6 450 м
[Cu med, cong Ac As Ci fib]
+27.6 +26.1 92 +42 +43 опасность
перегрева
1010.6 1009.7 +26.4 0.2
03 15.06 З 2 10 км 8/4 450 м
[Cu hum Ac lent Ci fib]
+31.2 +26.7 77 +48 +55 опасность
перегрева
1010.5 1009.7
06 15.06 ЮВ 2 10 км 9/5 450 м
[Cu hum Ac lent Ci fib]
+31.4 +26.6 76 +48 +53 опасность
перегрева
1008.0 1007.2
09 15.06 В 3 10 км 6/3 450 м
[Cu hum Ac lent Ci fib]
+30.6 +26.1 77 +46 +47 опасность
перегрева
1007.0 1006.2
12 15.06 ЮВ 3 8000 м зарница 8/4 420 м
[Cb cap Ac lent Ci fib]
+28.8 +25.9 84 +43 +43 опасность
перегрева
1009.4 1008.6 +32.6
15 15.06 З 6 6000 м гроза, ливневой дождь 10/6
[Cb cap Ac As Ci fib]
+26.0 +23.6 87 +35 +35 очень
душно
1011.8 1011.0 0.0
18 15.06 СЗ 1 7000 м слаб. ливневой дождь, в посл. час гроза 10/6
[Cb cap As op]
+23.9 +23.1 95 +32 +32 очень
душно
1011.3 1010.5 41
21 15.06 штиль 0 7000 м в посл. час дождь 10/6
[Cu med, cong Ac As]
+24.1 +23.4 96 +32 +32 очень
душно
1010.5 1009.6 6
00 16.06 штиль 0 9000 м слаб. дождь 10/4 450 м
[Cu hum As op]
+25.0 +24.0 94 +34 +35 очень
душно
1012.0 1011.2 +23.6 0.0

 

Местоположение метеостанции Таракан (Индонезия): широта 3.33 долгота 117.56 высота над уровнем моря 6 м.

В архиве по умолчанию представлена погода в Таракане за последнюю неделю. Архивные данные за месяц целиком и за предыдущие месяцы, начиная с января 2011 года, Вы можете получить, выбрав интересующий диапазон дат из раскрывающегося списка и нажав кнопку "Ввод!".


*Определитесь, кто Вы:
робот инопланетянин человек

Внимание! Время в таблицах - всемирное. Для получения местного времени необходимо прибавить поправку, которая равна 8 ч.

Смотрите также архив погоды в соседних городах и на ближайших метеорологических станциях:

Погода в Танджунгселоре (Индонезия) (59 км)
Погода в Тавау (Малайзия) (110 км)
Погода в Танджунгредепе (Индонезия) (135 км)
Погода в Лонгбаване (Индонезия) (213 км)
Погода в Сандакане (Малайзия) (291 км)
Погода в Кота-Кинабалу (Малайзия) (334 км)
Погода в Лабуане (Малайзия) (337 км)
Погода в Бруней аэропорту (Бруней) (342 км)
Погода в Мири (Малайзия) (413 км)
Погода в Самаринде (Индонезия) (442 км)

Пояснения к столбцам:

Ветер - указаны скорость ветра в м/с - средняя за 10 мин, порывы в срок и между сроками (в фигурных скобках) и направление, откуда дует ветер: С - северный, СВ - северо-восточный, В - восточный, ЮВ - юго-восточный, Ю - южный, ЮЗ - юго-западный, З - западный, СЗ - северо-западный.
Видимость - горизонтальная дальность видимости в метрах или километрах. При видимости от 1 до 10 км при отсутствии осадков обычно наблюдается дымка, при ухудшении видимости до 1 км и менее - туман. В сухую погоду видимость может ухудшаться дымом, пылью или мглою.
Явления - указаны атмосферные явления, наблюдавшиеся в срок или в последний час перед сроком; фигурными скобками обозначены явления, наблюдавшиеся между сроками (за 1-3 часа до срока); квадратными скобками обозначены град или гололедные отложения с указанием их диаметра в мм.
Облачность - указаны через наклонную черту общая и нижняя облачность в баллах и высота нижней границы облаков в метрах; квадратными скобками обозначены формы облаков: Ci - перистые, Cs - перисто-слоистые, Cc - перисто-кучевые, Ac - высококучевые, As - высокослоистые, Sc - слоисто-кучевые, Ns - слоисто-дождевые, Cu - кучевые, Cb - кучево-дождевые. Подробнее классификацию облаков см. в Атласе облаков (PDF).
T - Температура воздуха - температура, измеренная на высоте 2 м над землей.
Td - Температура точки росы - температура, при понижении до которой содержащийся в воздухе водяной пар достигнет насыщения.
f - Относительная влажность воздуха - влажноcть воздуха, измеренная на высоте 2 м над землей.
Te - Эффективная температура - температура, которую ощущает одетый по сезону человек в тени. Характеристика душности погоды. При расчете учитывается влияние влажности воздуха и скорости ветра на теплоощущения человека.
Tes - Эффективная температура на солнце - температура, которую ощущает человек, с поправкой на солнечный нагрев. Характеристика знойности погоды. Зависит от высоты солнца над горизонтом, облачности и скорости ветра. Ночью, в пасмурную погоду, а также при ветре 12 м/с и более поправка равна нулю.
P - Атмосферное давление - приведенное к уровню моря атмосферное давление.
Po - Атмосферное давление - измеренное на уровне метеостанции атмосферное давление.
Tmin - Минимальная температура - минимум температуры воздуха на высоте 2 м над землей.
Tmax - Максимальная температура - максимум температуры воздуха на высоте 2 м над землей.
R - Количество осадков - Количество выпавших осадков за период времени, мм. При наведении курсора мыши на число - период времени, за который выпало указанное количество осадков.
R24 - Количество осадков - Количество выпавших осадков за 24 часа, мм.
S - Снежный покров - Высота снежного покрова, см. При наведении курсора мыши на число - состояние снежного покрова и степень покрытия местности в баллах.